Flag for Solomon Islands Weather past 2 weeks in Honiara, Solomon Islands

Now
82 °F

Partly sunny.


Feels Like: 88 °F
Forecast: 71 / 83 °F
Wind: 7 mph from West

Location: Honiara / Henderson

Current Time: Jul 23, 2014 at 7:15:14 PM

Latest Report: Jul 23, 2014 at 5:00 PM


Visibility: N/A

Pressure: 29.71 "Hg

Humidity: 74%

Dew point: 73 °F

Location of HoniaraLocation

Historic Weather in Honiara — Graph

°F

Honiara temperature yesterday

Maximum temperature yesterday: 86 °F (at 2:00 PM)
Minimum temperature yesterday: 75 °F (at 3:00 AM)
Average temperature yesterday: 79 °F

Past Weeks' High & Low Weather Summary

 TemperatureHumidityPressure
High90 °F (Jul 13, 1:00 PM)100% (Jul 9, 2:00 AM)29.89 "Hg (Jul 9, 2:00 AM)
Low72 °F (Jul 9, 6:00 AM)59% (Jul 9, 11:00 AM)29.71 "Hg (Jul 8, 4:00 PM)
Average80 °F85%29.82 "Hg
* Reported Jul 8 4:00 PM — Jul 23 4:00 PM, Honiara, Weather by CustomWeather, © 2014

Note: Actual official high and low records may vary slightly from our data, if they occured in-between our weather recording intervals... More about our weather records

Advertising

Honiara weather history for previous 24 hours

 ConditionsComfort  
Time TempWeatherWind HumidityBarometerVisibility
4:00 PM
Jul 23
82 °FPartly sunny.6 mph74%29.71 "HgN/A
3:00 PM84 °FPartly sunny.10 mph70%29.71 "HgN/A
2:00 PM84 °FBroken clouds.9 mph70%29.74 "HgN/A
1:00 PM86 °FScattered clouds.9 mph66%29.77 "HgN/A
12:00 PM86 °FHaze.7 mph66%29.80 "HgN/A
11:00 AM84 °FHaze.5 mph70%29.83 "HgN/A
4:00 AM73 °FHaze.No wind94%29.77 "HgN/A
3:00 AM73 °FPassing clouds.5 mph94%29.77 "HgN/A
2:00 AM75 °FPassing clouds.3 mph94%29.80 "HgN/A
1:00 AM75 °FPassing clouds.No wind94%29.80 "HgN/A
12:00 AM75 °FPassing clouds.No wind89%29.80 "HgN/A
11:00 PM
Jul 22
75 °FPassing clouds.2 mph94%29.80 "HgN/A
10:00 PM77 °FPartly cloudy.No wind89%29.83 "HgN/A
9:00 PM77 °FPartly cloudy.No wind89%29.80 "HgN/A
8:00 PM79 °FMostly cloudy.No wind84%29.80 "HgN/A
7:00 PM79 °FMostly cloudy.No wind89%29.80 "HgN/A
Weather by CustomWeather, © 2014

See weather overviewHow to use our weather pages